• In Russia
  • List of Countries
  • For 7 days
  • Water Temperature
  • Satellite Maps
  • Weather Map
  • Weather Widgets
  • user-avatar
    Login

    Hourly Weather Wiktoria

    Today, 20 February, Tuesday

    Time Temperature Precipitation Wind Pressure Humidity
    00:00 +21°C° 0 mm 3 mps 750 mmHg 61%
    01:00 +20°C° 0 mm 3 mps 750 mmHg 63%
    02:00 +19°C° 0 mm 3 mps 750 mmHg 66%
    03:00 +18°C° 0 mm 3 mps 750 mmHg 68%
    04:00 +18°C° 0 mm 3 mps 750 mmHg 71%
    05:00 +18°C° 0 mm 3 mps 751 mmHg 70%
    06:00 +18°C° 0 mm 3 mps 751 mmHg 70%
    07:00 +18°C° 0 mm 3 mps 751 mmHg 69%
    08:00 +21°C° 0 mm 3 mps 751 mmHg 59%
    09:00 +24°C° 0 mm 3 mps 751 mmHg 49%
    10:00 +27°C° 0 mm 2 mps 751 mmHg 38%
    11:00 +29°C° 0 mm 2 mps 750 mmHg 34%
    12:00 +30°C° 0 mm 1 mps 750 mmHg 31%
    13:00 +32°C° 0 mm 1 mps 749 mmHg 28%
    14:00 +33°C° 0 mm 1 mps 749 mmHg 26%
    15:00 +33°C° 0 mm 1 mps 749 mmHg 24%
    16:00 +33°C° 0 mm 1 mps 748 mmHg 21%
    17:00 +31°C° 0 mm 1 mps 748 mmHg 24%
    18:00 +30°C° 0 mm 1 mps 748 mmHg 26%
    19:00 +28°C° 0 mm 2 mps 749 mmHg 28%
    20:00 +27°C° 0 mm 2 mps 749 mmHg 31%
    21:00 +26°C° 0 mm 2 mps 749 mmHg 33%
    22:00 +24°C° 0 mm 2 mps 749 mmHg 36%
    23:00 +23°C° 0 mm 2 mps 749 mmHg 38%

    Tomorrow, 21 February, Wednesday

    Time Temperature Precipitation Wind Pressure Humidity
    00:00 +22°C° 0 mm 3 mps 750 mmHg 40%
    01:00 +21°C° 0 mm 3 mps 750 mmHg 42%
    02:00 +20°C° 0 mm 4 mps 750 mmHg 45%
    03:00 +20°C° 0 mm 4 mps 750 mmHg 48%
    04:00 +19°C° 0 mm 4 mps 750 mmHg 50%
    05:00 +19°C° 0 mm 4 mps 750 mmHg 52%
    06:00 +19°C° 0 mm 4 mps 750 mmHg 53%
    07:00 +19°C° 0 mm 4 mps 751 mmHg 55%
    08:00 +20°C° 0 mm 4 mps 751 mmHg 50%
    09:00 +22°C° 0 mm 4 mps 751 mmHg 45%
    10:00 +25°C° 0 mm 4 mps 751 mmHg 41%
    11:00 +26°C° 0 mm 4 mps 750 mmHg 36%
    12:00 +28°C° 0 mm 3 mps 750 mmHg 32%
    13:00 +30°C° 0 mm 3 mps 749 mmHg 28%
    14:00 +30°C° 0 mm 3 mps 749 mmHg 26%
    15:00 +31°C° 0 mm 2 mps 748 mmHg 25%
    16:00 +31°C° 0 mm 2 mps 748 mmHg 23%
    17:00 +30°C° 0 mm 1 mps 748 mmHg 25%
    18:00 +29°C° 0 mm 1 mps 748 mmHg 27%
    19:00 +28°C° 0 mm 1 mps 748 mmHg 29%
    20:00 +27°C° 0 mm 1 mps 748 mmHg 30%
    21:00 +26°C° 0 mm 1 mps 748 mmHg 31%
    22:00 +26°C° 0 mm 1 mps 749 mmHg 31%
    23:00 +25°C° 0 mm 2 mps 749 mmHg 33%

    Day after tomorrow, 22 February, Thursday

    Time Temperature Precipitation Wind Pressure Humidity
    00:00 +25°C° 0 mm 2 mps 749 mmHg 35%
    01:00 +24°C° 0 mm 2 mps 748 mmHg 37%
    02:00 +24°C° 0 mm 2 mps 748 mmHg 38%
    03:00 +24°C° 0 mm 2 mps 748 mmHg 39%
    04:00 +24°C° 0 mm 2 mps 748 mmHg 40%
    05:00 +24°C° 0 mm 3 mps 748 mmHg 41%
    06:00 +24°C° 0 mm 3 mps 749 mmHg 43%
    07:00 +22°C° 0 mm 3 mps 749 mmHg 44%
    08:00 +25°C° 0 mm 3 mps 749 mmHg 41%
    09:00 +27°C° 0 mm 3 mps 749 mmHg 38%
    10:00 +29°C° 0 mm 4 mps 750 mmHg 35%
    11:00 +29°C° 0 mm 3 mps 749 mmHg 33%
    12:00 +30°C° 0 mm 3 mps 749 mmHg 32%
    13:00 +31°C° 0 mm 3 mps 749 mmHg 30%
    14:00 +30°C° 0 mm 2 mps 748 mmHg 32%
    15:00 +30°C° 0 mm 2 mps 748 mmHg 35%
    16:00 +29°C° 0 mm 1 mps 747 mmHg 37%
    17:00 +28°C° 0 mm 1 mps 747 mmHg 39%
    18:00 +28°C° 0 mm 1 mps 747 mmHg 41%
    19:00 +27°C° 0 mm 1 mps 748 mmHg 43%
    20:00 +26°C° 0 mm 2 mps 748 mmHg 44%
    21:00 +26°C° 0 mm 2 mps 748 mmHg 45%
    22:00 +26°C° 0 mm 2 mps 748 mmHg 46%
    23:00 +25°C° 0.2 mm 2 mps 748 mmHg 49%

    23 February, Friday

    Time Temperature Precipitation Wind Pressure Humidity
    00:00 +25°C° 0.2 mm 2 mps 748 mmHg 52%
    01:00 +24°C° 0.2 mm 2 mps 748 mmHg 55%
    02:00 +24°C° 0.6 mm 2 mps 747 mmHg 59%
    03:00 +22°C° 0.6 mm 3 mps 747 mmHg 63%
    04:00 +22°C° 0.6 mm 3 mps 747 mmHg 66%
    05:00 +21°C° 0.3 mm 3 mps 747 mmHg 66%
    06:00 +21°C° 0.3 mm 4 mps 748 mmHg 65%
    07:00 +21°C° 0.3 mm 4 mps 748 mmHg 64%
    08:00 +21°C° 0.4 mm 4 mps 748 mmHg 65%
    09:00 +21°C° 0.4 mm 4 mps 748 mmHg 65%
    10:00 +21°C° 0.4 mm 5 mps 748 mmHg 66%
    11:00 +22°C° 0.8 mm 4 mps 748 mmHg 66%
    12:00 +22°C° 0.8 mm 4 mps 747 mmHg 67%
    13:00 +22°C° 0.8 mm 4 mps 747 mmHg 67%
    14:00 +23°C° 0.1 mm 4 mps 746 mmHg 63%
    15:00 +25°C° 0.1 mm 4 mps 746 mmHg 60%
    16:00 +26°C° 0.1 mm 4 mps 745 mmHg 56%
    17:00 +26°C° 0 mm 4 mps 745 mmHg 55%
    18:00 +26°C° 0 mm 4 mps 745 mmHg 54%
    19:00 +25°C° 0 mm 4 mps 744 mmHg 52%
    20:00 +25°C° 0 mm 4 mps 744 mmHg 52%
    21:00 +25°C° 0 mm 4 mps 744 mmHg 52%
    22:00 +25°C° 0 mm 4 mps 744 mmHg 52%
    23:00 +23°C° 0 mm 4 mps 744 mmHg 55%

    24 February, Saturday

    Time Temperature Precipitation Wind Pressure Humidity
    00:00 +23°C° 0 mm 4 mps 744 mmHg 57%
    01:00 +23°C° 0 mm 4 mps 743 mmHg 60%
    02:00 +23°C° 0 mm 4 mps 743 mmHg 62%
    03:00 +23°C° 0 mm 4 mps 742 mmHg 64%
    04:00 +23°C° 0 mm 4 mps 742 mmHg 66%
    05:00 +23°C° 0.2 mm 4 mps 742 mmHg 67%
    06:00 +23°C° 0.2 mm 4 mps 742 mmHg 69%
    07:00 +23°C° 0.2 mm 5 mps 742 mmHg 71%
    08:00 +26°C° 0.1 mm 5 mps 742 mmHg 65%
    09:00 +28°C° 0.1 mm 5 mps 742 mmHg 60%
    10:00 +30°C° 0.1 mm 6 mps 742 mmHg 55%
    11:00 +30°C° 0.3 mm 6 mps 742 mmHg 55%
    12:00 +32°C° 0.3 mm 6 mps 741 mmHg 54%
    13:00 +32°C° 0.3 mm 7 mps 741 mmHg 54%
    14:00 +29°C° 0.2 mm 7 mps 741 mmHg 58%
    15:00 +27°C° 0.2 mm 7 mps 741 mmHg 62%
    16:00 +24°C° 0.2 mm 7 mps 741 mmHg 66%
    17:00 +24°C° 0 mm 7 mps 742 mmHg 65%
    18:00 +23°C° 0 mm 7 mps 742 mmHg 64%
    19:00 +22°C° 0 mm 6 mps 743 mmHg 63%
    20:00 +21°C° 0 mm 6 mps 744 mmHg 64%
    21:00 +19°C° 0 mm 5 mps 745 mmHg 65%
    22:00 +17°C° 0 mm 5 mps 746 mmHg 66%
    23:00 +16°C° 0 mm 5 mps 746 mmHg 68%

    25 February, Sunday

    Time Temperature Precipitation Wind Pressure Humidity
    00:00 +16°C° 0 mm 5 mps 746 mmHg 70%
    01:00 +15°C° 0 mm 5 mps 746 mmHg 72%
    02:00 +14°C° 0 mm 4 mps 747 mmHg 74%
    03:00 +14°C° 0 mm 4 mps 747 mmHg 75%
    04:00 +13°C° 0 mm 3 mps 747 mmHg 77%
    05:00 +14°C° 0 mm 4 mps 748 mmHg 75%
    06:00 +14°C° 0 mm 4 mps 748 mmHg 74%
    07:00 +14°C° 0 mm 5 mps 749 mmHg 73%
    08:00 +15°C° 0 mm 5 mps 749 mmHg 64%
    09:00 +17°C° 0 mm 6 mps 750 mmHg 56%
    10:00 +19°C° 0 mm 6 mps 750 mmHg 48%
    11:00 +20°C° 0 mm 6 mps 749 mmHg 44%
    12:00 +21°C° 0 mm 6 mps 749 mmHg 39%
    13:00 +23°C° 0 mm 6 mps 748 mmHg 35%
    14:00 +23°C° 0 mm 6 mps 748 mmHg 35%
    15:00 +23°C° 0 mm 6 mps 748 mmHg 34%
    16:00 +24°C° 0 mm 6 mps 747 mmHg 34%
    17:00 +22°C° 0 mm 6 mps 748 mmHg 38%
    18:00 +21°C° 0 mm 6 mps 748 mmHg 42%
    19:00 +19°C° 0 mm 5 mps 748 mmHg 46%
    20:00 +17°C° 0 mm 5 mps 749 mmHg 50%
    21:00 +16°C° 0 mm 5 mps 749 mmHg 55%
    22:00 +15°C° 0 mm 5 mps 750 mmHg 59%
    23:00 +14°C° 0 mm 4 mps 750 mmHg 62%
    Show more